Flag for U.S.A. Weather past 2 weeks in San Jose, California, U.S.A.

Now
91 °F

Sunny.


Feels Like: 87 °F
Forecast: 58 / 88 °F
Wind: 9 mph from Northwest

Location: San Jose International Airport

Current Time: Jul 28, 2015 at 2:57:43 PM

Latest Report: Jul 28, 2015 at 1:53 PM


Visibility: 10 mi

Pressure: 29.84 "Hg

Humidity: 20%

Dew point: 45 °F

Location of San JoseLocation

Historic Weather in San Jose — Graph

°F

San Jose temperature yesterday

Maximum temperature yesterday: 85 °F (at 2:53 PM)
Minimum temperature yesterday: 59 °F (at 3:53 AM)
Average temperature yesterday: 71 °F

Past Weeks' High & Low Weather Summary

 TemperatureHumidityPressure
High89 °F (Jul 19, 3:53 PM)90% (Jul 16, 5:53 AM)30.12 "Hg (Jul 16, 5:53 AM)
Low55 °F (Jul 24, 5:53 AM)27% (Jul 28, 12:53 PM)29.76 "Hg (Jul 17, 5:53 PM)
Average69 °F65%29.94 "Hg
* Reported Jul 13 12:53 PM — Jul 28 12:53 PM, San Jose, Weather by CustomWeather, © 2015

Note: Actual official high and low records may vary slightly from our data, if they occured in-between our weather recording intervals... More about our weather records

Advertising

San Jose weather history for previous 24 hours

 ConditionsComfort  
Time TempWeatherWind HumidityBarometerVisibility
12:53 PM
Tue, Jul 28
89 °FSunny.7 mph27%29.85 "Hg10 mi
11:53 AM85 °FSunny.7 mph34%29.86 "Hg10 mi
10:53 AM81 °FSunny.No wind33%29.87 "Hg10 mi
9:53 AM76 °FSunny.No wind42%29.88 "Hg10 mi
8:53 AM70 °FSunny.No wind51%29.89 "Hg10 mi
7:53 AM65 °FPassing clouds.No wind63%29.89 "Hg10 mi
6:53 AM62 °FClear.No wind73%29.88 "Hg10 mi
5:53 AM60 °FClear.No wind75%29.88 "Hg10 mi
4:53 AM62 °FClear.No wind73%29.87 "Hg10 mi
3:53 AM63 °FClear.No wind70%29.87 "Hg10 mi
2:53 AM63 °FClear.No wind78%29.87 "Hg10 mi
1:53 AM65 °FClear.No wind76%29.87 "Hg10 mi
12:53 AM65 °FClear.No wind76%29.88 "Hg10 mi
11:53 PM
Mon, Jul 27
66 °FClear.No wind73%29.89 "Hg10 mi
10:53 PM67 °FClear.3 mph68%29.90 "Hg10 mi
9:53 PM70 °FClear.5 mph53%29.90 "Hg10 mi
8:53 PM72 °FSunny.7 mph46%29.90 "Hg10 mi
7:53 PM75 °FSunny.10 mph43%29.89 "Hg10 mi
6:53 PM78 °FSunny.14 mph42%29.88 "Hg10 mi
5:53 PM81 °FSunny.20 mph38%29.87 "Hg10 mi
4:53 PM84 °FSunny.17 mph33%29.87 "Hg10 mi
3:53 PM85 °FSunny.18 mph32%29.88 "Hg10 mi
2:53 PM85 °FSunny.17 mph31%29.89 "Hg10 mi
Weather by CustomWeather, © 2015

See weather overviewHow to use our weather pages